When you browse on this site, cookies collect data to enhance your experience and personalize the content and advertising you see.
Visit our Privacy Policy to learn more. By continuing to use the site, you agree to this use of cookies and data.
  • In Romania
  • List of Countries
  • For 7 days
  • Water Temperature
  • Satellite Maps
  • Weather Map
  • Weather Widgets
  • user-avatar
    Login

    Hourly Weather Hiytola

    Today, 20 February, Wednesday

    Time Temperature Precipitation Wind Pressure Humidity
    00:00 0°C° 0.3 mm 3 mps 738 mmHg 95%
    01:00 0°C° 0.3 mm 3 mps 737 mmHg 95%
    02:00 -1°C° 0 mm 4 mps 737 mmHg 95%
    03:00 0°C° 0 mm 3 mps 737 mmHg 95%
    04:00 0°C° 0 mm 3 mps 737 mmHg 95%
    05:00 0°C° 0 mm 3 mps 736 mmHg 95%
    06:00 0°C° 0 mm 3 mps 736 mmHg 95%
    07:00 0°C° 0 mm 3 mps 736 mmHg 95%
    08:00 0°C° 0 mm 3 mps 736 mmHg 95%
    09:00 0°C° 0.1 mm 3 mps 736 mmHg 95%
    10:00 0°C° 0.1 mm 3 mps 736 mmHg 95%
    11:00 0°C° 0.1 mm 3 mps 736 mmHg 95%
    12:00 0°C° 0.2 mm 3 mps 736 mmHg 93%
    13:00 -1°C° 0.2 mm 4 mps 737 mmHg 92%
    14:00 -1°C° 0.2 mm 4 mps 737 mmHg 90%
    15:00 -2°C° 0.1 mm 4 mps 738 mmHg 88%
    16:00 -5°C° 0.1 mm 5 mps 738 mmHg 85%
    17:00 -6°C° 0.1 mm 6 mps 739 mmHg 83%
    18:00 -8°C° 0.1 mm 6 mps 740 mmHg 82%
    19:00 -8°C° 0.1 mm 7 mps 740 mmHg 82%
    20:00 -8°C° 0.1 mm 7 mps 741 mmHg 81%
    21:00 -10°C° 0.2 mm 8 mps 742 mmHg 80%
    22:00 -10°C° 0.2 mm 8 mps 744 mmHg 80%
    23:00 -10°C° 0.2 mm 9 mps 745 mmHg 79%

    Tomorrow, 21 February, Thursday

    Time Temperature Precipitation Wind Pressure Humidity
    00:00 -11°C° 0.1 mm 8 mps 746 mmHg 77%
    01:00 -11°C° 0.1 mm 8 mps 748 mmHg 76%
    02:00 -12°C° 0.1 mm 8 mps 749 mmHg 74%
    03:00 -12°C° 0 mm 8 mps 751 mmHg 74%
    04:00 -12°C° 0 mm 7 mps 752 mmHg 74%
    05:00 -13°C° 0 mm 7 mps 753 mmHg 74%
    06:00 -12°C° 0 mm 6 mps 754 mmHg 76%
    07:00 -14°C° 0 mm 6 mps 755 mmHg 78%
    08:00 -14°C° 0 mm 5 mps 756 mmHg 80%
    09:00 -13°C° 0 mm 5 mps 757 mmHg 79%
    10:00 -13°C° 0 mm 5 mps 758 mmHg 77%
    11:00 -13°C° 0 mm 5 mps 759 mmHg 76%
    12:00 -12°C° 0 mm 5 mps 759 mmHg 74%
    13:00 -12°C° 0 mm 5 mps 760 mmHg 73%
    14:00 -12°C° 0 mm 5 mps 760 mmHg 71%
    15:00 -11°C° 0 mm 4 mps 761 mmHg 74%
    16:00 -12°C° 0 mm 4 mps 762 mmHg 78%
    17:00 -14°C° 0 mm 4 mps 762 mmHg 81%
    18:00 -14°C° 0 mm 4 mps 763 mmHg 83%
    19:00 -14°C° 0 mm 4 mps 764 mmHg 84%
    20:00 -15°C° 0 mm 4 mps 764 mmHg 86%
    21:00 -15°C° 0 mm 4 mps 765 mmHg 87%
    22:00 -15°C° 0 mm 4 mps 765 mmHg 88%
    23:00 -15°C° 0 mm 4 mps 766 mmHg 88%

    Day after tomorrow, 22 February, Friday

    Time Temperature Precipitation Wind Pressure Humidity
    00:00 -16°C° 0 mm 4 mps 766 mmHg 88%
    01:00 -16°C° 0 mm 4 mps 767 mmHg 87%
    02:00 -16°C° 0 mm 4 mps 768 mmHg 87%
    03:00 -16°C° 0 mm 4 mps 768 mmHg 86%
    04:00 -16°C° 0 mm 4 mps 769 mmHg 86%
    05:00 -16°C° 0 mm 4 mps 769 mmHg 85%
    06:00 -17°C° 0 mm 4 mps 770 mmHg 85%
    07:00 -17°C° 0 mm 4 mps 771 mmHg 84%
    08:00 -17°C° 0 mm 4 mps 771 mmHg 83%
    09:00 -16°C° 0 mm 4 mps 772 mmHg 81%
    10:00 -15°C° 0 mm 4 mps 772 mmHg 79%
    11:00 -14°C° 0 mm 4 mps 773 mmHg 77%
    12:00 -12°C° 0 mm 4 mps 773 mmHg 76%
    13:00 -12°C° 0 mm 4 mps 773 mmHg 75%
    14:00 -11°C° 0 mm 4 mps 773 mmHg 74%
    15:00 -12°C° 0 mm 3 mps 774 mmHg 77%
    16:00 -13°C° 0 mm 3 mps 774 mmHg 79%
    17:00 -13°C° 0 mm 3 mps 774 mmHg 82%
    18:00 -14°C° 0 mm 3 mps 775 mmHg 84%
    19:00 -14°C° 0 mm 2 mps 775 mmHg 86%
    20:00 -14°C° 0 mm 2 mps 775 mmHg 88%
    21:00 -14°C° 0 mm 2 mps 775 mmHg 87%
    22:00 -13°C° 0 mm 1 mps 775 mmHg 86%
    23:00 -13°C° 0 mm 1 mps 775 mmHg 86%

    23 February, Saturday

    Time Temperature Precipitation Wind Pressure Humidity
    00:00 -13°C° 0 mm 1 mps 775 mmHg 84%
    01:00 -13°C° 0 mm 1 mps 775 mmHg 83%
    02:00 -12°C° 0 mm 1 mps 775 mmHg 81%
    03:00 -14°C° 0 mm 2 mps 774 mmHg 79%
    04:00 -13°C° 0 mm 2 mps 773 mmHg 77%
    05:00 -13°C° 0 mm 3 mps 773 mmHg 75%
    06:00 -13°C° 0 mm 3 mps 772 mmHg 76%
    07:00 -12°C° 0 mm 3 mps 772 mmHg 76%
    08:00 -11°C° 0 mm 4 mps 771 mmHg 76%
    09:00 -10°C° 0.1 mm 4 mps 770 mmHg 80%
    10:00 -10°C° 0.1 mm 5 mps 769 mmHg 83%
    11:00 -9°C° 0.1 mm 6 mps 768 mmHg 86%
    12:00 -8°C° 0.1 mm 6 mps 767 mmHg 87%
    13:00 -6°C° 0.1 mm 6 mps 767 mmHg 88%
    14:00 -5°C° 0.1 mm 5 mps 766 mmHg 89%
    15:00 -5°C° 0.3 mm 5 mps 765 mmHg 90%
    16:00 -4°C° 0.3 mm 5 mps 764 mmHg 90%
    17:00 -4°C° 0.3 mm 5 mps 764 mmHg 91%
    18:00 -2°C° 0 mm 5 mps 764 mmHg 92%
    19:00 -1°C° 0 mm 4 mps 764 mmHg 92%
    20:00 0°C° 0 mm 4 mps 764 mmHg 93%
    21:00 0°C° 0 mm 3 mps 764 mmHg 93%
    22:00 0°C° 0 mm 3 mps 764 mmHg 94%
    23:00 -1°C° 0 mm 2 mps 764 mmHg 94%

    24 February, Sunday

    Time Temperature Precipitation Wind Pressure Humidity
    00:00 -2°C° 0 mm 2 mps 765 mmHg 95%
    01:00 -3°C° 0 mm 2 mps 765 mmHg 95%
    02:00 -4°C° 0 mm 2 mps 765 mmHg 96%
    03:00 -4°C° 0 mm 2 mps 765 mmHg 95%
    04:00 -5°C° 0 mm 2 mps 766 mmHg 95%
    05:00 -5°C° 0 mm 2 mps 766 mmHg 95%
    06:00 -5°C° 0 mm 2 mps 766 mmHg 94%
    07:00 -5°C° 0 mm 2 mps 766 mmHg 93%
    08:00 -3°C° 0 mm 1 mps 766 mmHg 92%
    09:00 -2°C° 0 mm 1 mps 766 mmHg 91%
    10:00 0°C° 0 mm 1 mps 766 mmHg 89%
    11:00 +1°C° 0 mm 1 mps 766 mmHg 88%
    12:00 +1°C° 0 mm 2 mps 765 mmHg 89%
    13:00 +1°C° 0 mm 2 mps 765 mmHg 90%
    14:00 +1°C° 0 mm 2 mps 765 mmHg 92%
    15:00 0°C° 0 mm 3 mps 764 mmHg 93%
    16:00 0°C° 0 mm 3 mps 764 mmHg 94%
    17:00 -1°C° 0 mm 3 mps 764 mmHg 96%
    18:00 0°C° 0 mm 3 mps 763 mmHg 96%
    19:00 0°C° 0 mm 3 mps 763 mmHg 97%
    20:00 0°C° 0 mm 3 mps 762 mmHg 97%
    21:00 0°C° 0 mm 3 mps 762 mmHg 97%
    22:00 0°C° 0 mm 3 mps 761 mmHg 96%
    23:00 0°C° 0 mm 3 mps 761 mmHg 95%

    25 February, Monday

    Time Temperature Precipitation Wind Pressure Humidity
    00:00 +1°C° 0.3 mm 3 mps 761 mmHg 95%
    01:00 0°C° 0.3 mm 4 mps 760 mmHg 94%
    02:00 0°C° 0.3 mm 4 mps 760 mmHg 94%
    03:00 -1°C° 0 mm 4 mps 760 mmHg 90%
    04:00 -1°C° 0 mm 5 mps 760 mmHg 86%
    05:00 -2°C° 0 mm 5 mps 760 mmHg 81%
    06:00 -2°C° 0 mm 5 mps 760 mmHg 80%
    07:00 -2°C° 0 mm 5 mps 760 mmHg 79%
    08:00 -4°C° 0 mm 6 mps 760 mmHg 77%
    09:00 -3°C° 0 mm 6 mps 760 mmHg 76%
    10:00 -2°C° 0 mm 6 mps 760 mmHg 74%
    11:00 -1°C° 0 mm 6 mps 759 mmHg 72%
    12:00 -1°C° 0 mm 6 mps 759 mmHg 71%
    13:00 +1°C° 0 mm 6 mps 758 mmHg 70%
    14:00 0°C° 0 mm 7 mps 758 mmHg 69%
    15:00 +1°C° 0 mm 6 mps 758 mmHg 68%
    16:00 -1°C° 0 mm 6 mps 758 mmHg 68%
    17:00 -1°C° 0 mm 6 mps 757 mmHg 67%
    18:00 -2°C° 0 mm 6 mps 758 mmHg 68%
    19:00 -2°C° 0 mm 6 mps 758 mmHg 68%
    20:00 -3°C° 0 mm 6 mps 758 mmHg 69%
    21:00 -3°C° 0 mm 6 mps 758 mmHg 71%
    22:00 -2°C° 0 mm 5 mps 758 mmHg 72%
    23:00 -2°C° 0 mm 5 mps 758 mmHg 74%
    Show more